| time (UTC) | temp F | wind direction | speed MPH | gust MPH | rain 1hr in | rain 24hr in | rain mn in | humidity % | barometer mb |
| 20260505073037 | 58 | 244 | 0.0 | 7.0 | 0.02 | 2.66 | 0.04 | 87 | 999.9 |
| 20260505071535 | 58 | 186 | 0.0 | 1.0 | 0.02 | 2.66 | 0.04 | 88 | 999.6 |
| 20260505070041 | 57 | 267 | 1.0 | 10.0 | 0.02 | 2.66 | 0.04 | 90 | 999.4 |
| 20260505064529 | 57 | 222 | 0.0 | 0.0 | 0.00 | 2.74 | 0.02 | 91 | 999.9 |
| 20260505063032 | 57 | 187 | 0.0 | 0.0 | 0.00 | 2.74 | 0.02 | 92 | 1000.0 |
| 20260505061606 | 57 | 155 | 0.0 | 0.0 | 0.00 | 2.74 | 0.02 | 92 | 1000.3 |
| 20260505060033 | 57 | 200 | 0.0 | 0.0 | 0.00 | 2.74 | 0.02 | 92 | 1000.5 |
| 20260505054532 | 57 | 192 | 0.0 | 0.0 | 0.00 | 2.74 | 0.02 | 91 | 1000.8 |
| 20260505053021 | 58 | 225 | 0.0 | 0.0 | 0.00 | 2.74 | 0.02 | 91 | 1000.4 |
| 20260505051519 | 58 | 221 | 0.0 | 0.0 | 0.01 | 2.74 | 0.02 | 90 | 1001.0 |
| 20260505041507 | 61 | 246 | 0.0 | 9.0 | 0.13 | 2.80 | 0.01 | 85 | 1001.5 |
| 20260505040002 | 65 | 269 | 0.0 | 1.0 | 0.20 | 2.84 | 2.79 | 72 | 1000.3 |
| 20260505034501 | 66 | 182 | 0.0 | 12.0 | 0.19 | 2.81 | 2.76 | 65 | 1000.0 |
| 20260505033105 | 67 | 175 | 0.0 | 7.0 | 0.16 | 2.77 | 2.72 | 65 | 1000.0 |
| 20260505031600 | 67 | 219 | 0.0 | 9.0 | 0.13 | 2.72 | 2.67 | 65 | 1000.1 |
| 20260505030059 | 66 | 208 | 0.0 | 5.0 | 0.05 | 2.64 | 2.59 | 67 | 1000.2 |
| 20260505024557 | 66 | 181 | 0.0 | 3.0 | 0.05 | 2.67 | 2.57 | 66 | 1000.5 |
| 20260505023101 | 67 | 236 | 0.0 | 4.0 | 0.05 | 2.66 | 2.56 | 66 | 1000.6 |
| 20260505021558 | 67 | 194 | 0.0 | 11.0 | 0.06 | 2.64 | 2.54 | 65 | 1000.6 |
| 20260505020059 | 67 | 227 | 0.0 | 3.0 | 0.06 | 2.64 | 2.54 | 65 | 1000.3 |
| 20260505014556 | 67 | 166 | 0.0 | 3.0 | 0.05 | 2.63 | 2.52 | 66 | 1000.1 |
| 20260505013055 | 66 | 221 | 0.0 | 1.0 | 0.04 | 2.62 | 2.50 | 66 | 1000.0 |
| 20260505011610 | 66 | 214 | 0.0 | 7.0 | 0.01 | 2.59 | 2.48 | 67 | 1000.0 |
| 20260505010055 | 64 | 213 | 0.0 | 8.0 | 0.01 | 2.59 | 2.48 | 73 | 999.8 |
| 20260505004604 | 62 | 226 | 0.0 | 0.0 | 0.00 | 2.58 | 2.47 | 84 | 999.9 |
| 20260505003055 | 60 | 213 | 0.0 | 1.0 | 0.00 | 2.58 | 2.47 | 89 | 999.8 |
| 20260505001605 | 60 | 289 | 0.0 | 0.0 | 0.01 | 2.58 | 2.47 | 89 | 999.9 |
| 20260505000106 | 61 | 232 | 0.0 | 0.0 | 0.02 | 2.58 | 2.47 | 88 | 999.5 |
| 20260504234552 | 62 | 302 | 0.0 | 0.0 | 0.03 | 2.92 | 2.47 | 85 | 999.3 |
| 20260504233102 | 64 | 93 | 0.0 | 0.0 | 0.08 | 2.92 | 2.47 | 78 | 999.1 |
| 20260504231548 | 70 | 325 | 0.0 | 4.0 | 0.10 | 2.90 | 2.45 | 64 | 999.7 |
| 20260504230046 | 73 | 231 | 0.0 | 8.0 | 0.13 | 2.90 | 2.45 | 53 | 998.7 |
| 20260504224546 | 74 | 257 | 0.0 | 13.0 | 0.14 | 3.49 | 2.44 | 51 | 998.9 |
| 20260504223047 | 75 | 239 | 0.0 | 4.0 | 0.17 | 3.44 | 2.39 | 49 | 998.8 |
| 20260504221544 | 76 | 172 | 0.0 | 16.0 | 0.19 | 3.40 | 2.35 | 49 | 998.8 |
| 20260504220042 | 76 | 181 | 0.0 | 9.0 | 0.21 | 3.37 | 2.31 | 49 | 999.1 |
| 20260504214541 | 75 | 227 | 2.0 | 18.0 | 0.24 | 3.79 | 2.29 | 50 | 999.2 |
| 20260504213038 | 75 | 173 | 0.0 | 14.0 | 0.23 | 3.71 | 2.22 | 52 | 999.3 |
| 20260504211535 | 76 | 184 | 0.0 | 10.0 | 0.28 | 3.65 | 2.16 | 51 | 999.7 |
| 20260504210034 | 75 | 205 | 0.0 | 12.0 | 0.31 | 3.60 | 2.11 | 51 | 1000.0 |
| 20260504204530 | 74 | 202 | 0.0 | 11.0 | 0.36 | 4.28 | 2.04 | 52 | 1000.3 |
| 20260504203028 | 74 | 175 | 0.0 | 10.0 | 0.36 | 4.22 | 1.99 | 50 | 1000.4 |
| 20260504201527 | 75 | 185 | 0.0 | 4.0 | 0.34 | 4.09 | 1.87 | 45 | 1000.6 |
| 20260504200026 | 75 | 186 | 2.0 | 11.0 | 0.41 | 4.03 | 1.80 | 43 | 1000.6 |
| 20260504194528 | 75 | 169 | 0.0 | 11.0 | 0.35 | 4.55 | 1.69 | 42 | 1000.9 |
| 20260504193020 | 74 | 226 | 0.0 | 13.0 | 0.35 | 4.50 | 1.63 | 41 | 1001.2 |
| 20260504191519 | 74 | 181 | 0.0 | 11.0 | 0.36 | 4.40 | 1.53 | 42 | 1001.3 |
| 20260504190018 | 74 | 225 | 0.0 | 15.0 | 0.27 | 4.26 | 1.39 | 41 | 1001.5 |
| 20260504184516 | 74 | 291 | 0.0 | 9.0 | 0.27 | 4.90 | 1.33 | 41 | 1001.5 |
| 20260504183011 | 74 | 159 | 2.0 | 12.0 | 0.25 | 4.84 | 1.28 | 39 | 1001.6 |
| 20260504181512 | 74 | 107 | 0.0 | 12.0 | 0.14 | 4.74 | 1.17 | 39 | 1001.9 |
| 20260504180008 | 73 | 178 | 1.0 | 10.0 | 0.15 | 4.69 | 1.12 | 40 | 1002.1 |
| 20260504174509 | 72 | 229 | 0.0 | 8.0 | 0.13 | 5.17 | 1.06 | 42 | 1002.4 |
| 20260504173105 | 72 | 163 | 0.0 | 7.0 | 0.13 | 5.14 | 1.03 | 45 | 1002.6 |
| 20260504171557 | 71 | 240 | 1.0 | 9.0 | 0.20 | 5.14 | 1.03 | 49 | 1002.8 |